Wind_Speed
12 13 14 14 15 16 18 18 19 18 18 19 19 19 19 18 18 19 18 19 18 18 19 20 21 22 22 23 23 22 21 21 22 22 21 21 20 19 19 18 18 17 17 16
10 12 13 14 15 15 15 16 17 17 17 18 18 18 17 16 17 17 18 18 18 18 18 19 20 20 21 21 21 20 20 21 21 20 19 18 17 17 16 16 15 15 15 15
10 11 12 13 12 13 13 14 15 16 17 17 17 17 17 17 17 16 16 17 17 18 18 18 18 18 19 19 19 19 19 18 17 16 16 15 15 15 15 15 13 13 13 12
11 11 11 10 10 11 11 12 13 14 14 14 15 15 16 16 16 16 15 15 15 15 16 16 17 17 18 18 17 17 16 14 13 12 12 12 12 13 12 11 11 10 9 9
9 11 11 9 9 11 12 11 11 11 11 11 12 13 13 13 14 14 14 13 13 14 14 15 16 16 16 16 15 13 12 11 10 9 9 9 9 9 8 8 8 7 7 7
10 11 11 9 9 9 10 10 9 9 9 9 10 10 10 11 11 12 12 11 11 12 13 14 14 14 14 13 12 11 10 9 8 8 8 8 7 6 6 6 6 5 5 4
10 10 10 8 9 8 8 8 8 9 8 8 9 9 9 8 8 9 10 10 10 11 11 12 12 13 12 11 11 9 8 7 7 7 7 6 5 4 4 4 3 3 2 2
8 8 8 8 8 8 8 7 7 7 7 7 8 8 7 7 7 8 8 9 9 9 9 11 11 12 11 10 9 8 7 6 6 6 5 4 4 4 4 3 3 2 1 1
7 7 7 7 8 7 7 6 6 6 6 6 6 5 5 5 6 7 8 8 8 8 8 10 11 12 12 10 9 8 6 5 5 5 5 4 3 3 3 2 2 2 3 2
6 6 5 5 5 5 5 5 5 5 4 5 5 4 4 5 5 6 7 7 7 7 7 9 10 11 11 10 9 7 7 6 5 5 4 4 4 4 4 4 4 3 4 4
4 4 4 4 3 4 4 5 4 4 4 4 4 4 4 5 5 5 6 6 7 7 7 8 9 11 11 10 9 8 7 6 6 6 5 6 6 5 5 4 4 4 4 4
3 3 4 4 4 4 4 4 4 4 4 4 4 3 4 4 4 5 5 6 7 7 7 8 9 10 10 11 10 9 8 8 7 7 7 6 6 6 5 5 4 4 4 4
2 2 3 3 3 3 3 3 4 3 3 3 3 3 3 3 4 5 6 6 7 7 7 7 8 9 10 11 11 10 10 9 8 8 7 7 6 6 5 5 5 5 4 4
2 1 2 3 3 3 3 3 3 3 3 3 3 3 4 4 4 4 5 6 7 7 7 7 8 8 9 10 10 10 10 9 8 8 7 6 6 5 5 5 5 4 4 4
2 1 1 3 3 3 3 4 4 3 3 3 3 3 3 4 4 4 5 5 6 7 7 7 7 8 9 9 10 10 10 9 9 8 7 6 6 6 5 5 5 4 4 4
1 0 1 2 3 3 3 3 4 4 3 3 3 3 3 4 4 4 4 5 5 6 6 6 6 7 8 9 9 9 9 9 8 8 8 7 6 5 4 4 3 3 3 2
2 1 1 2 2 3 3 3 3 3 3 3 3 3 3 3 4 4 4 4 5 5 5 5 6 6 7 8 8 9 8 8 8 8 8 7 6 5 4 4 3 3 2 2
2 2 2 2 2 3 3 3 3 3 3 4 4 4 3 3 4 4 5 5 5 5 5 5 5 5 6 6 7 8 8 8 8 8 8 7 6 6 5 4 3 3 2 1
3 2 2 2 3 3 3 3 3 3 3 4 4 4 4 4 4 4 5 5 5 4 4 4 5 5 5 6 6 6 6 7 7 8 7 7 7 6 5 4 3 3 2 2
3 1 1 2 2 2 3 3 3 3 3 4 4 4 4 4 5 5 5 5 5 4 4 4 4 4 5 5 6 6 6 6 6 7 7 7 6 6 5 4 3 3 3 3
3 2 2 1 1 2 2 2 2 3 3 4 4 4 4 5 5 5 5 5 5 4 4 4 4 5 5 5 6 6 6 7 7 7 6 6 6 6 6 5 5 5 5 5
4 3 2 2 1 1 2 2 2 2 3 4 4 4 5 5 5 5 6 5 4 4 4 5 5 5 5 6 6 7 7 7 8 8 8 8 7 7 7 7 7 8 8 8
3 3 2 1 1 0 1 2 2 2 3 3 4 4 4 5 5 6 6 6 5 5 5 5 6 6 6 7 7 7 8 8 9 9 10 10 10 10 11 11 11 11 12 12
4 3 2 1 1 1 1 1 2 3 3 4 4 5 5 5 5 6 6 6 6 6 6 6 7 7 8 8 9 9 10 11 11 12 11 12 12 13 13 13 14 14 15 15
3 2 2 1 1 1 2 2 2 3 4 4 4 5 5 6 6 6 6 7 7 7 7 8 9 9 10 10 11 12 12 13 13 14 14 14 15 15 15 16 16 17 17 18
4 3 3 2 2 2 2 3 3 4 4 4 5 5 6 6 7 7 8 8 9 9 9 9 10 11 12 12 13 13 14 15 15 16 16 16 17 17 18 18 19 19 20 20
4 3 3 3 3 3 3 3 4 4 5 5 6 6 7 7 8 9 9 10 10 10 11 11 11 12 13 14 15 15 16 17 17 17 18 18 19 19 20 20 21 22 23 23
Wind_Direction
257 254 251 253 256 258 260 266 270 275 277 282 285 286 287 291 294 296 296 298 296 296 298 298 299 302 303 304 301 298 296 293 291 289 286 285 285 283 283 283 283 283 282 282
253 254 258 256 258 262 265 268 271 276 280 283 285 286 288 292 295 297 295 298 297 301 305 305 305 305 305 305 304 302 299 297 293 290 287 286 285 284 285 285 284 283 284 284
252 253 264 260 263 269 274 276 277 279 280 283 285 286 288 291 293 299 302 304 303 304 305 307 307 308 309 309 307 306 303 300 296 293 291 289 287 287 288 286 284 285 286 285
255 257 271 272 275 279 285 285 282 285 286 285 284 288 293 297 299 305 310 310 310 310 311 313 314 314 314 314 312 311 308 305 302 300 298 296 294 292 294 291 286 284 285 285
266 267 276 285 287 288 293 294 295 291 292 292 292 292 298 303 305 306 314 313 314 316 317 317 317 318 320 319 318 317 316 313 310 306 306 306 307 303 299 298 295 287 286 286
269 276 280 287 293 291 292 298 304 301 300 301 302 303 304 305 307 311 317 318 322 325 324 324 324 326 326 326 325 325 324 323 320 317 315 315 315 310 302 300 292 291 299 299
268 274 282 295 299 294 295 304 305 306 306 307 310 309 308 312 315 320 321 329 334 334 334 336 335 335 335 336 335 335 332 326 324 326 321 321 324 324 320 319 310 301 301 291
275 277 290 301 302 301 304 307 308 308 309 312 315 313 308 314 324 327 332 340 345 347 349 350 351 351 351 350 348 348 346 344 347 352 349 343 335 332 335 341 346 342 339 33
279 287 295 299 306 310 313 313 311 311 315 323 325 326 322 328 337 339 344 351 358 2 0 360 1 2 3 3 3 6 7 7 10 10 3 0 3 5 13 27 51 59 50 60
277 286 297 307 313 321 323 326 323 323 331 342 346 341 339 342 348 350 353 357 4 9 8 9 10 10 12 11 14 20 24 21 19 18 18 25 32 43 55 65 72 77 73 77
274 282 301 308 313 322 320 324 329 333 335 344 349 351 358 1 2 5 5 9 11 17 18 17 16 17 17 20 24 26 29 30 34 38 41 48 58 69 78 78 73 80 92 96
260 281 306 314 310 316 327 335 340 343 339 342 347 352 2 8 16 22 23 22 21 23 25 24 23 23 24 27 29 32 34 37 39 41 46 54 63 72 80 79 73 72 87 99
240 286 322 339 333 344 348 342 345 353 354 356 5 14 18 24 27 33 34 34 33 33 35 33 29 30 31 35 38 39 38 40 46 50 53 57 63 70 73 75 75 77 88 94
238 292 355 13 16 8 4 7 8 14 20 27 27 27 33 34 37 38 36 38 35 37 41 42 41 39 37 38 37 37 39 43 45 47 50 52 56 61 68 73 75 79 84 89
234 299 1 14 17 20 23 26 33 43 43 36 30 31 35 37 40 38 37 36 37 38 42 45 44 43 41 41 38 36 39 42 44 45 47 51 55 58 64 70 71 74 74 78
200 168 42 31 32 36 38 40 44 46 41 37 36 36 38 38 39 40 37 32 35 37 39 41 43 41 40 40 39 39 39 41 42 43 44 45 50 55 57 58 60 61 62 70
170 127 79 56 48 51 55 58 50 45 41 42 44 46 41 32 31 32 28 23 26 29 31 34 34 33 31 31 32 32 32 35 35 35 35 35 39 44 46 47 49 50 58 71
153 127 102 78 66 68 68 62 55 49 45 46 51 49 38 25 21 20 16 12 14 22 27 28 27 22 21 23 23 26 29 29 26 28 31 32 32 34 36 39 45 49 52 44
165 132 105 85 83 80 73 62 60 57 54 50 43 36 24 15 13 10 7 6 7 10 12 14 13 16 19 19 14 15 19 19 20 22 23 24 24 25 26 28 28 22 16 0
177 164 124 94 85 81 76 65 60 57 50 39 30 23 16 11 6 2 358 360 1 1 1 5 6 5 6 7 8 7 6 6 9 11 11 11 10 10 10 9 1 346 332 320
173 163 150 134 119 91 75 68 56 42 33 26 19 14 11 7 3 1 357 355 355 351 348 351 354 352 353 353 352 352 351 351 352 353 353 352 352 350 348 345 339 327 315 306
168 166 164 165 154 96 59 42 30 23 19 14 10 7 6 3 1 359 357 352 347 344 339 338 338 337 338 339 338 337 335 334 333 334 333 331 330 327 324 322 318 313 307 301
177 178 183 199 190 94 17 9 8 2 355 353 355 357 355 353 352 351 347 346 338 333 330 327 326 325 323 322 323 323 325 325 324 322 320 318 316 314 313 311 308 304 301 297
189 193 199 208 228 298 321 338 347 347 344 343 344 347 346 344 342 343 341 340 338 331 326 324 322 320 320 320 319 319 319 319 318 317 315 312 309 308 307 305 304 302 300 298
193 196 204 226 258 287 296 306 326 338 341 341 339 340 341 341 340 338 335 334 332 329 324 320 319 318 317 317 317 317 316 315 313 313 311 308 306 305 304 303 301 301 300 298
204 212 223 238 259 278 290 302 317 327 331 332 335 337 340 341 339 335 331 328 327 326 322 320 318 317 316 316 315 315 314 312 311 310 308 307 305 303 302 301 300 300 299 298
208 218 235 257 277 288 295 301 311 320 324 327 330 331 332 333 334 331 329 327 324 323 320 319 319 318 317 316 315 315 314 313 311 310 308 308 306 304 303 302 301 301 300 299
Height
5816 5815 5815 5815 5815 5815 5815 5814 5814 5814 5813 5812 5811 5810 5808 5806 5804 5803 5801 5799 5796 5795 5793 5790 5787 5784 5781 5777 5774 5770 5767 5765 5762 5760 5758 5756 5755 5754 5753 5751 5750 5749 5748 5747
5812 5812 5811 5811 5811 5811 5811 5810 5810 5809 5808 5807 5806 5805 5803 5802 5800 5798 5796 5794 5792 5789 5787 5784 5781 5778 5775 5772 5768 5765 5762 5759 5756 5754 5752 5751 5749 5748 5747 5746 5745 5744 5743 5742
5809 5809 5809 5808 5808 5807 5807 5806 5805 5804 5804 5802 5801 5800 5799 5797 5796 5794 5791 5789 5787 5785 5782 5780 5777 5773 5770 5766 5763 5759 5756 5753 5751 5749 5748 5746 5745 5743 5742 5741 5740 5739 5738 5737
5806 5807 5806 5807 5805 5804 5803 5802 5801 5800 5798 5797 5796 5795 5795 5793 5791 5790 5787 5785 5783 5781 5778 5775 5772 5769 5765 5762 5758 5755 5752 5749 5747 5746 5744 5742 5741 5739 5738 5737 5736 5736 5735 5734
5803 5803 5803 5803 5803 5801 5800 5798 5797 5796 5795 5794 5792 5791 5791 5789 5787 5786 5784 5782 5780 5777 5774 5771 5768 5765 5761 5758 5754 5751 5748 5746 5744 5743 5741 5739 5738 5737 5735 5734 5733 5733 5732 5731
5801 5800 5800 5802 5800 5798 5798 5795 5795 5793 5792 5791 5790 5789 5788 5786 5785 5783 5781 5778 5776 5774 5771 5768 5765 5761 5758 5754 5751 5748 5746 5744 5742 5741 5739 5737 5736 5735 5733 5732 5732 5731 5730 5729
5798 5797 5797 5798 5796 5796 5796 5795 5792 5791 5789 5788 5787 5787 5786 5784 5782 5780 5779 5776 5773 5771 5768 5765 5762 5759 5755 5752 5749 5746 5744 5742 5741 5739 5737 5736 5735 5734 5732 5731 5730 5730 5729 5728
5795 5795 5797 5795 5793 5793 5793 5791 5789 5788 5787 5786 5785 5783 5782 5781 5780 5778 5776 5774 5771 5769 5766 5764 5761 5757 5754 5750 5748 5745 5743 5741 5740 5738 5736 5735 5734 5733 5732 5731 5730 5729 5728 5728
5794 5795 5793 5792 5791 5790 5789 5788 5787 5786 5785 5784 5782 5781 5780 5779 5778 5776 5774 5772 5770 5768 5765 5763 5760 5757 5753 5750 5747 5745 5743 5741 5740 5738 5736 5735 5734 5733 5732 5731 5730 5730 5729 5729
5791 5791 5790 5790 5788 5787 5787 5786 5785 5784 5783 5782 5781 5780 5779 5778 5777 5775 5773 5771 5769 5767 5765 5762 5760 5757 5754 5750 5748 5745 5743 5741 5740 5738 5737 5735 5734 5733 5732 5732 5731 5731 5730 5730
5789 5789 5789 5788 5787 5786 5785 5784 5783 5782 5781 5780 5780 5779 5778 5777 5776 5774 5772 5771 5769 5767 5764 5762 5760 5757 5755 5752 5749 5746 5744 5743 5741 5739 5737 5736 5735 5734 5733 5733 5732 5732 5732 5731
5788 5787 5787 5787 5786 5784 5783 5782 5781 5781 5780 5779 5778 5778 5777 5776 5775 5773 5772 5770 5768 5766 5764 5762 5761 5758 5756 5753 5750 5748 5746 5744 5742 5740 5739 5738 5737 5736 5735 5734 5734 5733 5733 5733
5786 5786 5785 5784 5783 5782 5782 5781 5780 5779 5779 5778 5777 5777 5776 5775 5774 5773 5772 5770 5769 5767 5765 5763 5762 5759 5757 5754 5752 5750 5748 5746 5744 5742 5741 5740 5739 5738 5737 5736 5735 5735 5734 5734
5784 5784 5784 5783 5782 5782 5781 5780 5779 5778 5778 5777 5777 5776 5776 5775 5774 5773 5772 5771 5769 5767 5766 5764 5762 5761 5759 5756 5754 5752 5750 5748 5746 5745 5743 5742 5741 5740 5739 5738 5737 5737 5736 5736
5782 5783 5783 5782 5782 5781 5780 5780 5779 5778 5778 5777 5777 5776 5776 5775 5774 5773 5772 5771 5770 5768 5767 5765 5764 5762 5760 5758 5756 5754 5752 5750 5748 5746 5745 5744 5743 5742 5741 5740 5739 5739 5738 5738
5781 5782 5782 5782 5781 5781 5780 5780 5779 5778 5778 5777 5777 5776 5776 5775 5774 5774 5773 5772 5770 5769 5768 5766 5765 5763 5762 5760 5758 5756 5754 5752 5750 5749 5747 5746 5744 5743 5742 5741 5741 5740 5739 5739
5781 5781 5781 5781 5781 5780 5780 5780 5779 5778 5778 5777 5777 5776 5776 5775 5774 5774 5773 5772 5771 5770 5768 5767 5765 5764 5763 5761 5760 5758 5756 5754 5752 5751 5749 5747 5746 5745 5744 5743 5742 5741 5741 5740
5780 5780 5780 5780 5780 5780 5780 5780 5779 5779 5778 5778 5777 5776 5776 5775 5775 5774 5773 5772 5771 5770 5768 5767 5766 5765 5763 5762 5761 5759 5757 5756 5754 5752 5751 5749 5748 5746 5745 5744 5743 5742 5741 5741
5779 5780 5780 5780 5780 5780 5780 5780 5780 5779 5779 5778 5777 5777 5776 5775 5774 5774 5773 5771 5770 5769 5768 5767 5766 5765 5764 5763 5762 5760 5758 5757 5755 5754 5752 5751 5749 5748 5746 5745 5744 5743 5742 5741
5778 5779 5779 5780 5780 5780 5780 5780 5780 5779 5779 5778 5778 5777 5776 5775 5774 5773 5772 5771 5770 5769 5768 5767 5766 5765 5764 5763 5762 5761 5759 5758 5756 5755 5753 5752 5750 5749 5747 5746 5745 5744 5743 5742
5778 5779 5779 5779 5780 5780 5780 5780 5780 5779 5779 5778 5777 5776 5776 5775 5774 5773 5771 5770 5769 5769 5768 5767 5766 5765 5764 5763 5762 5761 5759 5758 5757 5755 5754 5752 5751 5750 5748 5746 5745 5744 5742 5741
5777 5778 5779 5779 5780 5779 5780 5779 5779 5779 5778 5778 5777 5776 5775 5774 5773 5772 5771 5770 5769 5768 5767 5767 5766 5765 5764 5763 5762 5761 5759 5758 5757 5755 5754 5752 5751 5749 5748 5746 5745 5743 5741 5740
5777 5778 5778 5779 5779 5779 5779 5779 5779 5778 5778 5777 5776 5776 5775 5774 5773 5772 5771 5770 5769 5768 5767 5766 5765 5764 5763 5762 5761 5760 5759 5757 5756 5754 5753 5751 5750 5748 5746 5745 5743 5741 5740 5738
5776 5777 5777 5778 5778 5778 5778 5778 5778 5777 5777 5776 5776 5775 5774 5773 5772 5771 5770 5769 5768 5767 5766 5766 5765 5764 5762 5761 5760 5759 5757 5756 5754 5752 5751 5749 5748 5746 5744 5742 5741 5739 5737 5735
5775 5776 5776 5777 5777 5777 5777 5777 5777 5776 5776 5775 5775 5774 5773 5772 5772 5771 5770 5769 5768 5766 5765 5764 5763 5762 5761 5759 5758 5756 5755 5753 5752 5750 5748 5746 5745 5743 5741 5739 5737 5735 5733 5731
5774 5775 5775 5776 5776 5776 5776 5776 5775 5775 5774 5774 5773 5773 5772 5771 5770 5769 5768 5767 5766 5765 5764 5763 5761 5760 5759 5757 5756 5754 5752 5750 5748 5746 5745 5743 5741 5739 5737 5734 5732 5730 5728 5725
5772 5773 5774 5775 5775 5775 5775 5775 5774 5774 5773 5773 5772 5772 5771 5770 5769 5768 5767 5766 5764 5763 5762 5761 5759 5758 5756 5754 5753 5751 5749 5747 5745 5742 5740 5738 5736 5734 5731 5729 5727 5724 5721 5719